Weather Roundup
Issued by NWS Chicago, IL

Home | Current Version | Previous Version | Text Only | Print | Product List | Glossary Off
Versions: 1 2 3 4 5 6 7 8 9 10 11 12 13 14 15 16 17 18 19 20 21 22 23 24 25 26 27 28 29 30 31 32 33 34 35 36 37 38 39 40 41 42 43 44 45 46 47 48 49 50

000
NZUS59 KLOT 221306
HRRLOT

CHICAGO AREA WEATHER ROUNDUP
NATIONAL WEATHER SERVICE CHICAGO/ROMEOVILLE IL
700 AM CST SAT NOV 22 2014

NOTE: "FAIR" INDICATES FEW OR NO CLOUDS BELOW 12,000 FEET WITH NO
SIGNIFICANT WEATHER AND/OR OBSTRUCTIONS TO VISIBILITY.

* THESE STATIONS ARE NOT UNDER NWS QUALITY CONTROL. THEY ALSO MAY NOT
  REPORT WEATHER SUCH AS PRECIPITATION OR FOG.

ILZ005-006-012>014-019>023-221400-
NORTHEAST ILLINOIS

CITY           SKY/WX    TMP DP  RH WIND       PRES   REMARKS
OHARE          DRIZZLE   36  34  92 S10       30.03F FOG
MIDWAY         CLOUDY    37  35  92 S13G18    30.05F FOG
AURORA         FOG       37  34  89 S7        30.03F VSB 3/4
LANSING*       CLOUDY    36  33  90 SW9       30.08S
JOLIET*        CLOUDY    37  34  91 S7        30.05F FOG
WAUKEGAN       CLOUDY    35  34  96 SW12      30.00F FOG     WCI  27
DUPAGE AIRPORT CLOUDY    35  34  96 S10       30.02F FOG     WCI  27
WHEELING       CLOUDY    36  34  92 S9        30.04F FOG
KANKAKEE*      LGT RAIN  37  34  89 S13       30.08F
MORRIS*        CLOUDY    38  37  93 S9        30.04F
LEWIS AIRPORT* CLOUDY    37  35  94 S10       30.04F FOG
NORTHERLY IS     N/A     36  34  92 S12         N/A
$$

WIZ051-052-058>065-066-070>072-221400-
SOUTHEAST WISCONSIN

CITY           SKY/WX    TMP DP  RH WIND       PRES   REMARKS
MILWAUKEE      CLOUDY    35  32  88 SW14      29.97F FOG     WCI  26
KENOSHA*       CLOUDY    36  34  92 SW14G20   29.99F FOG
RACINE*        CLOUDY    36  33  89 SW13      30.00F
BURLINGTON     CLOUDY    32  32  99 SW13      29.97F FOG     WCI  23
WAUKESHA       CLOUDY    32  32 100 SW7       29.97F FOG     WCI  26
WEST BEND      CLOUDY    34  32  93 SW12      29.94S FOG     WCI  25
$$

INZ001>003-010>013-019-020-221400-
NORTHWEST INDIANA

CITY           SKY/WX    TMP DP  RH WIND       PRES   REMARKS
GARY*          CLOUDY    37  34  87 S12       30.07F FOG
MICHIGAN CITY* NOT AVBL
RENSSELAER*    NOT AVBL
VALPARAISO     CLOUDY    34  31  88 S8        30.09F WCI  27
$$

LMZ740>746-221400-
SOUTHERN LAKE MICHIGAN

STATION/POSITION TIME  SKY/WX   TEMP WIND        PRES    VSBY
                                AIR  DIR/SP/G
                 (UTC)          (F)  (DEG/KT/KT) (MB)    (MI)
HARRISON CRIB    1300            36  200/ 18/ 22   N/A
BURNHAM HARBOR   1300            36  190/  9/ 13   N/A
CALUMET HARBOR   1300            36  180/  8/ 15 1016.7R
BURNS HARBOR     NOT AVBL
MICHIGAN CITY    1300            36  180/ 14/ 18   N/A
$$

ABBREVIATIONS USED IN REMARKS
   TC - TEMPERATURE IN CELSIUS
  WCI - WIND CHILL INDEX
   HX - HEAT INDEX
  VSB - VISIBILITY
$$


USA.gov is the U.S. government's official web portal to all federal, state and local government web resources and services.